Back to catalog

STARLINK-37719

AliveCommunicationsVLEO
NORAD 100013·PAYLOAD·🇺🇸 United States

Launched Jul 14, 2026 from Vandenberg Space Force Base

Loading…

Next Passes (next 24 hours)

TLE

FreshSource: Space-Track

Epoch: Sep 14, 2026, 07:27 UTC

1 A0013U 26160N   26257.31069191  .00175105  00000-0  10285-2 0  9998
2 A0013  70.0019 212.5906 0002800 283.6638  76.4250 15.77599374 11018

Track STARLINK-37719 in real time with AllMySat

Download on the App Store